Voltar ao catálogo

DIRECTV 14

AtivoComunicaçõesGEO
NORAD 40333·PAYLOAD·🇺🇸 United States

Lançado Dec 6, 2014 de Guiana Space Centre

Loading…

TLE

AtualizadoSource: Space-Track

Época: Sep 14, 2026, 15:28 UTC

1 40333U 14078B   26257.64454825 -.00000133  00000-0  00000-0 0  9991
2 40333   0.0146  86.7277 0000721 349.2822  50.4042  1.00271254 42949

Acompanhe DIRECTV 14 em tempo real com AllMySat

Download on the App Store